User: anonymous   Login
Location: Unspecified
(0.0000°N, 0.0000°E)
Time: 19:27:42
(UTC+00:00)
Language:

STARLINK-6182 - Orbit

View from above orbital plane
View from above orbital plane
View from above satellite
View from above satellite

Ground track
Ground track

The orbit is defined by the following mean orbital elements,

1 56878U          26145.66668980 +.00000000 +00000-0 +43160-3 0 00001
2 56878  43.0037  10.7750 0001585 264.4146 308.2227 15.27579127    09
Epoch (UTC): 25 May 2026 16:00:01
Eccentricity: 0.0001585
inclination: 43.0037°
perigee height: 482 km
apogee height: 484 km
right ascension of ascending node: 10.7750°
argument of perigee: 264.4146°
revolutions per day: 15.27579127
mean anomaly at epoch: 308.2227°

The dashed part of the orbit path shows where the satellite is in the earth's shadow,  

DLR